#timestamp,LO_Frequency,Hit 
1504386015.5,286047012.7,N
1504386035.3,286047017.2,N
1504386055.2,286047015.4,N
1504386075.9,286047015.0,N
1504386095.7,286047013.1,N
1504386115.6,286047015.7,N
1504386135.4,286047015.9,N
1504386155.2,286047018.7,N
1504386175.1,286047019.7,N
1504386176.0,286047019.7,N
1504386195.8,286047020.7,N
1504386215.6,286047022.6,N
1504386235.5,286047020.8,N
1504386255.3,286047017.6,N
1504386275.1,286047022.9,P
1504386295.9,286047006.1,N
1504386315.7,286047008.4,N
1504386335.5,286047004.8,N
1504386355.4,286047006.6,N
1504386375.2,286047010.4,N
1504386395.0,286047010.5,N
1504386395.9,286047010.5,N
1504386415.8,286047012.2,N
1504386435.6,286047006.3,N
1504386455.4,286047004.9,N
1504386475.3,286047008.2,N
1504386495.1,286047007.1,N
1504386496.0,286047007.1,N
1504386515.8,286047004.8,N
1504386535.7,286047007.1,N
1504386555.5,286047006.9,N
1504386575.3,286047012.3,N
1504386595.2,286047013.1,P
1504386615.9,286047007.6,P
1504386635.7,286047004.8,N
1504386655.6,286047006.9,N
1504386675.4,286047003.0,N
1504386695.2,286047005.9,N
1504386715.0,286047005.8,N
1504386716.0,286047005.8,N
1504386735.8,286047004.2,N
1504386755.6,286047000.2,N
1504386775.4,286047000.9,N
1504386795.3,286047002.7,N
1504386815.1,286047001.6,N
1504386835.8,286047001.9,N
1504386855.7,286047004.3,N
1504386875.5,286047005.8,N
1504386895.3,286047003.5,N
1504386915.2,286046999.2,N
1504386935.9,286046995.9,N
1504386955.7,286046994.6,N
1504386975.6,286046988.7,N
1504386995.4,286046984.0,P
1504387015.2,286046983.4,N
1504387035.1,286046982.7,N
1504387036.0,286046982.7,N
1504387055.8,286046980.6,N
1504387075.6,286046985.1,N
1504387095.5,286046985.8,N
1504387115.3,286046986.4,N
1504387135.1,286046983.7,N
1504387155.9,286046982.6,N
1504387175.7,286046981.0,P
1504387195.5,286046993.4,N
1504387215.4,286046994.2,N
1504387235.2,286046991.3,N
1504387255.0,286046990.9,N
1504387255.9,286046990.9,N
1504387275.8,286046993.2,N
1504387295.6,286046991.9,N
1504387315.4,286046990.3,N
1504387335.3,286046992.7,N
1504387355.1,286046992.4,N
1504387356.0,286046992.4,N
1504387375.8,286046995.1,N
1504387395.7,286047000.3,N
1504387415.5,286046996.9,N
1504387435.3,286046995.8,N
1504387455.1,286046997.0,N
1504387475.9,286046996.4,N
1504387495.7,286046994.8,N
1504387515.5,286046992.5,N
1504387535.4,286046992.4,N
1504387555.2,286046991.0,N
1504387575.0,286046993.5,N
1504387575.9,286046993.5,N
1504387595.8,286046991.8,N
1504387615.6,286046992.6,N
1504387635.4,286046991.3,N
1504387655.3,286046988.6,P
1504387675.1,286046997.5,N
1504387695.8,286046995.2,N
1504387715.7,286046996.9,N
1504387735.5,286046997.1,N
1504387755.3,286046995.1,N
1504387775.2,286046992.0,N
1504387795.9,286046998.5,N
1504387815.7,286047004.0,N
1504387835.6,286047006.6,N
1504387855.4,286047009.2,N
1504387875.2,286047008.2,N
1504387895.1,286047011.2,N
1504387896.0,286047011.2,N
1504387915.8,286047010.4,N
1504387935.6,286047014.0,N
1504387955.4,286047016.8,N
1504387975.3,286047017.8,N
1504387995.1,286047021.2,N
1504388015.8,286047022.8,N
1504388035.7,286047022.7,N
1504388055.5,286047024.4,N
1504388075.3,286047022.9,N
1504388095.2,286047022.4,N
1504388115.9,286047018.9,N
1504388135.7,286047017.5,N
1504388155.6,286047021.3,N
1504388175.4,286047019.7,N
1504388195.2,286047019.6,N
1504388215.1,286047017.7,N
1504388216.0,286047017.7,N
1504388235.8,286047020.1,N
1504388255.6,286047018.1,N
1504388275.5,286047018.1,N
1504388295.3,286047021.9,N
1504388315.1,286047021.3,N
1504388335.8,286047021.2,N
1504388355.7,286047023.4,P
1504388375.5,286047006.1,N
1504388395.4,286047006.5,N
1504388415.2,286047008.8,N
1504388435.0,286047010.0,N
1504388435.9,286047010.0,N
1504388455.8,286047012.3,N
1504388475.6,286047006.4,N
1504388495.4,286047010.1,N
1504388515.2,286047011.9,N
1504388535.1,286047011.0,N
1504388536.0,286047011.0,N
1504388555.8,286047009.9,N
1504388575.6,286047007.9,N
1504388595.5,286047010.2,N
1504388615.3,286047011.8,N
1504388635.1,286047009.8,N
1504388655.9,286047013.7,P
1504388675.7,286047004.1,N
1504388695.5,286047001.7,N
1504388715.4,286047003.2,N
1504388735.2,286047001.7,N
1504388755.0,286047000.6,N
1504388755.9,286047000.6,N
1504388775.8,286047002.1,N
1504388795.6,286047001.2,N
1504388815.4,286046998.2,N
1504388835.3,286046999.1,N
1504388855.1,286047001.1,N
1504388856.0,286047001.1,N
1504388875.8,286046997.1,N
1504388895.7,286046997.2,N
1504388915.5,286046999.0,N
1504388935.3,286046999.1,N
1504388955.2,286047005.2,N
1504388975.9,286047001.4,N
1504388995.7,286047000.5,N
1504389015.6,286046996.9,N
1504389035.4,286046994.2,N
1504389055.2,286046988.6,N
1504389075.1,286046984.8,P
1504389076.0,286046984.8,N
1504389095.8,286046979.6,N
1504389115.6,286046983.2,N
1504389135.5,286046983.1,N
1504389155.3,286046986.2,N
1504389175.1,286046984.3,N
1504389195.9,286046983.1,N
1504389215.7,286046981.2,P
1504389235.5,286046993.5,P
1504389255.4,286046994.8,N
1504389275.2,286046992.9,N
1504389295.0,286046992.6,N
1504389295.9,286046992.6,N
1504389315.8,286046988.6,N
1504389335.6,286046986.9,N
1504389355.4,286046989.1,N
1504389375.2,286046990.8,N
1504389395.1,286046988.6,N
1504389396.0,286046988.6,P
1504389415.8,286047000.6,N
1504389435.7,286047000.4,N
1504389455.5,286046996.9,N
1504389475.3,286046990.1,N
1504389495.1,286046988.9,N
1504389515.9,286046995.9,N
1504389535.7,286046996.5,N
1504389555.5,286046995.0,N
1504389575.4,286046997.5,N
1504389595.2,286046995.7,N
